STARLINK-1988 (47584 NORAD) Tracking and Keplerian Element Data
This shows tracking and keplerian element data for the satellite.
Feedback or suggestion? Click here.
Element | Value |
Catalog | 47584 |
Name | STARLINK-1988 |
Epoch Orbit | 454 |
Epoch Day | 60.16668981 |
Epoch Year | 2021 |
RAAN | 1.711 |
Inclination | 53.0545 |
Eccentricity | 0.0001224 |
Argument of Perigee | 63.1851 |
Mean Anonmoly | 256.7601 |
Mean Motion | 15.6274299 |
Decay Rate | 0.00036922 |
L1 | 1 47584U 21009AN 21060.16668981 .00036922 00000-0 40740-3 0 9994 |
L2 | 2 47584 53.0545 1.7110 0001224 63.1851 256.7601 15.62742990 4540 |
Live tracking and technical data element details for STARLINK-1988 (NORAD 47584). STARLINK-1988 can be tracked NOW for your location showing map with azimuth and elevation plus other details from your city location.
Track the satellite on the map from your city or location and see movement details for azimuth, elevation, latitude, longitude, range, height, and movement on the map or in text.
IsCatalogInMostPopularTable: catalog: 47584, numindb: 4
Update: records affected: 1
GetName: 47584 STARLINK-1988
Hit Count: updated at: Mon, 01 Mar 2021 16:30:07 GMT